User: anonymous   Login
Location: Gollag?dem
(16.8053°N, 80.8024°E)
Time: 11:09:31
(UTC+00:00)
Language:

Cosmos 1812 Rocket - Orbit

View from above orbital plane
View from above orbital plane
View from above satellite
View from above satellite

Ground track
Ground track

The orbit data is extracted from the following two-line orbital elements,

1 17296U 87003B   20305.13509941  .00000085  00000-0  73611-5 0  9991
2 17296  82.5269 312.6491 0020433 117.3148 243.0150 14.83305004825730
Epoch (UTC): 31 October 2020 03:14:32
Eccentricity: 0.0020433
inclination: 82.5269°
perigee height: 604 km
apogee height: 633 km
right ascension of ascending node: 312.6491°
argument of perigee: 117.3148°
revolutions per day: 14.83305004
mean anomaly at epoch: 243.0150°
orbit number at epoch: 82573

The dashed part of the orbit path shows where the satellite is in the earth's shadow,  

DLR